This demonstration page uses our WeatherBlox Daily Observations layout. Learn more.

Left ArrowRight Arrow

34.74481, -87.66753

Hourly Observations for August 12, 2022

Temp ( °F °C ) Dew Point ( °F °C ) Humidity (%) Winds ( mph kmh ) Pressure ( in mb ) Visibility ( mi km ) Precip ( " mm )
12:53 am 00:53 Mostly Clear 77 25 73 22.8 88 88 NE 5 7 30.03 1017 10 16 0.00 0.00
1:53 am 01:53 Clear 76 24.4 73 22.8 91 91 Calm 30.01 1016 10 16 0.00 0.00
2:53 am 02:53 Clear 76 24.4 72 22.2 88 88 NE 7 11 30.00 1016 10 16 0.00 0.00
3:53 am 03:53 Clear 75 23.9 71 21.7 88 88 NE 6 9 30.01 1016 10 16 0.00 0.00
4:53 am 04:53 Clear 74 23.3 70 21.1 87 87 NE 3 6 30.02 1017 10 16 0.00 0.00
5:53 am 05:53 Clear 72 22.2 69 20.6 91 91 Calm 30.04 1017 10 16 0.00 0.00
6:53 am 06:53 Sunny 73 22.8 70 21.1 90 90 Calm 30.06 1018 8 13 0.00 0.00
7:53 am 07:53 Partly Cloudy 76 24.4 70 21.1 82 82 Calm 30.07 1018 10 16 0.00 0.00
8:53 am 08:53 Sunny 79 26.1 68 20 69 69 ENE 5 7 30.08 1019 10 16 0.00 0.00
9:53 am 09:53 Sunny 82 27.8 67 19.4 60 60 NE 6 9 30.07 1018 10 16 0.00 0.00
10:53 am 10:53 Sunny 85 29.4 67 19.4 55 55 VRB 6 9 30.08 1019 10 16 0.00 0.00
11:53 am 11:53 Sunny 86 30 67 19.4 53 53 VRB 6 9 30.06 1018 10 16 0.00 0.00
12:53 pm 12:53 Mostly Sunny 88 31.1 68 20 52 52 N 8 13 30.04 1017 10 16 0.00 0.00
1:53 pm 13:53 Partly Cloudy 89 31.7 68 20 50 50 VRB 7 11 30.04 1017 10 16 0.00 0.00
2:53 pm 14:53 Mostly Sunny 89 31.7 67 19.4 48 48 VRB 7 11 30.02 1017 10 16 0.00 0.00
3:53 pm 15:53 Partly Cloudy 90 32.2 68 20 49 49 VRB 7 11 30.01 1016 10 16 0.00 0.00
4:53 pm 16:53 Mostly Sunny 90 32.2 68 20 49 49 undefined N/A 30.00 1016 10 16 0.00 0.00
5:53 pm 17:53 Mostly Sunny 86 30 68 20 55 55 ENE 8 13 30.00 1016 10 16 0.00 0.00
6:53 pm 18:53 Mostly Cloudy 85 29.4 65 18.3 51 51 NE 8 13 30.00 1016 10 16 0.00 0.00
7:53 pm 19:53 Clear 80 26.7 64 17.8 58 58 NE 5 7 30.01 1016 10 16 0.00 0.00
8:53 pm 20:53 Clear 78 25.6 65 18.3 64 64 ENE 8 13 30.02 1017 10 16 0.00 0.00
9:53 pm 21:53 Clear 75 23.9 65 18.3 71 71 ENE 6 9 30.04 1017 10 16 0.00 0.00
10:53 pm 22:53 Clear 74 23.3 65 18.3 74 74 NE 6 9 30.05 1018 10 16 0.00 0.00
11:53 pm 23:53 Clear 72 22.2 64 17.8 76 76 NE 5 7 30.06 1018 10 16 0.00 0.00

Powered by AerisWeather